Regional Weather Roundup
Issued by NWS

Home | Current Version | Previous Version | Text Only | Print | Product List | Glossary Off
Versions: 1 2 3 4 5 6 7 8 9 10 11 12 13 14 15 16 17 18 19 20 21 22 23 24 25 26 27 28 29 30 31 32 33 34 35 36 37 38 39 40 41 42 43 44 45 46 47 48 49 50

000
ASUS43 KLOT 032103
RWRIL

ILLINOIS REGIONAL WEATHER ROUNDUP
NATIONAL WEATHER SERVICE CHICAGO/ROMEOVILLE IL
400 PM CDT TUE MAY 03 2016

NOTE: "FAIR" INDICATES FEW OR NO CLOUDS BELOW 12,000 FEET WITH NO
SIGNIFICANT WEATHER AND/OR OBSTRUCTIONS TO VISIBILITY.

* THESE STATIONS ARE NOT UNDER NWS QUALITY CONTROL. THEY ALSO MAY NOT
  REPORT WEATHER SUCH AS PRECIPITATION OR FOG.

ILZ001-002-007-009-015-016-024-032200-
NORTHWEST ILLINOIS

CITY           SKY/WX    TMP DP  RH WIND       PRES   REMARKS
MOLINE         PTSUNNY   69  39  33 W18       29.87F
STERLING*      CLOUDY    64  41  42 W18       29.85F
$$

ILZ003-004-008-010-011-017-018-032200-
NORTH CENTRAL ILLINOIS

CITY           SKY/WX    TMP DP  RH WIND       PRES   REMARKS
ROCKFORD       PTSUNNY   67  39  35 W17G28    29.83F
FREEPORT*      PTSUNNY   64  39  39 W15G24    29.84F
DE KALB*       PTSUNNY   67  42  39 W17       29.84F
$$

ILZ005-006-012>014-019>023-032200-
NORTHEAST ILLINOIS

CITY           SKY/WX    TMP DP  RH WIND       PRES   REMARKS
CHICAGO-OHARE  PTSUNNY   64  38  38 W15       29.82F
CHICAGO-MIDWAY PTSUNNY   65  36  34 W10       29.83F
AURORA         PTSUNNY   68  41  37 W23G30    29.84F
LANSING*       PTSUNNY   64  37  36 W8        29.85F
WAUKEGAN       MOSUNNY   66  36  32 SW9G21    29.79F
DUPAGE AIRPORT PTSUNNY   65  38  36 W17       29.83F
WHEELING       MOSUNNY   66  38  35 W8        29.82F
NORTHERLY ISL    N/A     56  41  57 E5          N/A
NORTHERLY ISL    N/A     56  41  57 E5          N/A
$$

LMZ740>746-032200-
SOUTHERN LAKE MICHIGAN

STATION/POSITION SKY/WX   TEMP    WIND        PRES    VSBY  WAVE
                          AIR SEA DIR/SP/G                  HT/PER
                          (F)     (DEG/KT/KT) (MB)    (MI)  (FT/S)
SOUTHERN BUOY              45 42  170/ 12/ 14 1010.0          1
HARRISON CRIB              57     150/ 13/ 15   N/A
BURNHAM HARBOR             58     290/  4/ 10   N/A
CALUMET HARBOR             59      20/  6/  9 1010.4F
BURNS HARBOR               63      40/  3/  3 1011.9F
MICHIGAN CITY              59     230/  4/  4   N/A
ST. JOSEPH                 52 50                N/A           0
$$

ILZ025>027-034>036-040-047-049-050-058-095>099-032200-
WEST-CENTRAL ILLINOIS

CITY           SKY/WX    TMP DP  RH WIND       PRES   REMARKS
QUINCY         MOSUNNY   65  39  38 W12       29.94F
MACOMB*        MOSUNNY   67  38  35 W12G17    29.94F
$$

ILZ028>032-037-038-041>044-048-051>054-059>061-032200-
CENTRAL ILLINOIS

CITY           SKY/WX    TMP DP  RH WIND       PRES   REMARKS
BLOOMINGTON    PTSUNNY   63  42  46 W10       29.91F
DECATUR        CLOUDY    63  41  44 W9        29.92F
PEORIA         MOSUNNY   69  35  28 NW12G21   29.89F
SPRINGFIELD    CLOUDY    67  43  41 W12       29.92F
TAYLORVILLE    NOT AVBL
$$

ILZ033-039-045-046-055>057-062-063-032200-
EAST-CENTRAL ILLINOIS

CITY           SKY/WX    TMP DP  RH WIND       PRES   REMARKS
CHAMPAIGN      CLOUDY    63  42  46 NW9       29.90F
MATTOON        MOSUNNY   64  41  42 N8        29.91F
$$

ILZ079-100>102-032200-
SOUTHWEST ILLINOIS

CITY           SKY/WX    TMP DP  RH WIND       PRES   REMARKS
ALTON          CLOUDY    61  45  55 W8        29.98F
BELLEVILLE     MOSUNNY   65  42  42 N7        29.95F
CAHOKIA*       CLOUDY    63  42  46 N8        29.97F
SPARTA*        CLOUDY    63  43  48 N7        29.98F
$$

ILZ064>066-069>071-074>076-080>082-084>086-088>090-092>094-032200-
SOUTH-CENTRAL ILLINOIS

CITY           SKY/WX    TMP DP  RH WIND       PRES   REMARKS
CARBONDALE     CLOUDY    63  42  46 NW6       29.96F
MARION         CLOUDY    64  43  45 N8        29.97F
MT. VERNON     CLOUDY    61  41  48 W7        29.97F
SALEM*         CLOUDY    62  44  52 W7        29.96F
$$

ILZ067-068-072-073-078-083-087-091-032200-
SOUTHEAST ILLINOIS

CITY           SKY/WX    TMP DP  RH WIND       PRES   REMARKS
LAWRENCEVILLE  CLOUDY    63  42  46 W13       29.93F
FLORA*         CLOUDY    64  40  42 NW6       29.94F
HARRISBURG*    CLOUDY    64  43  47 N6        29.96F
ROBINSON*      CLOUDY    61  44  53 NW8       29.93F
$$

ABBREVIATIONS USED IN REMARKS
   TC - TEMPERATURE IN CELSIUS
  WCI - WIND CHILL INDEX
   HX - HEAT INDEX
  VSB - VISIBILITY
$$





USA.gov is the U.S. government's official web portal to all federal, state and local government web resources and services.